Time,TemperatureF,DewpointF,PressureIn,WindDirection,WindDirectionDegrees,WindSpeedMPH,WindSpeedGustMPH,Humidity,HourlyPrecipIn,Conditions,Clouds,dailyrainin,SolarRadiationWatts/m^2,SoftwareType,DateUTC
2013-02-02 00:00:00,12.0,11.0,-100.00,South,180,5.0,-999.0,95,-99.99,,,-99.99,0.000000,,2013-02-02 05:00:00,
2013-02-02 00:33:00,12.0,11.0,-100.00,South,180,5.0,-999.0,95,-99.99,,,-99.99,0.000000,,2013-02-02 05:33:00,
2013-02-02 00:42:00,12.0,11.0,-100.00,South,180,5.0,-999.0,95,-99.99,,,-99.99,0.000000,,2013-02-02 05:42:00,
2013-02-02 00:52:00,12.0,11.0,-100.00,South,180,5.0,-999.0,95,-99.99,,,-99.99,0.000000,,2013-02-02 05:52:00,
2013-02-02 01:00:00,14.0,14.0,-100.00,SW,225,4.0,-999.0,99,-99.99,,,-99.99,0.000000,,2013-02-02 06:00:00,
2013-02-02 01:42:00,14.0,14.0,-100.00,SW,225,4.0,-999.0,99,-99.99,,,-99.99,0.000000,,2013-02-02 06:42:00,
2013-02-02 01:52:00,14.0,14.0,-100.00,SW,225,4.0,-999.0,99,-99.99,,,-99.99,0.000000,,2013-02-02 06:52:00,
2013-02-02 02:00:00,16.0,16.0,-100.00,West,270,5.0,-999.0,100,-99.99,,,-99.99,0.000000,,2013-02-02 07:00:00,
2013-02-02 02:42:00,16.0,16.0,-100.00,West,270,5.0,-999.0,100,-99.99,,,-99.99,0.000000,,2013-02-02 07:42:00,
2013-02-02 02:52:00,16.0,16.0,-100.00,West,270,5.0,-999.0,100,-99.99,,,-99.99,0.000000,,2013-02-02 07:52:00,
2013-02-02 04:00:00,17.0,17.0,-100.00,WSW,247,4.0,-999.0,100,-99.99,,,-99.99,0.000000,,2013-02-02 09:00:00,
2013-02-02 04:42:00,17.0,17.0,-100.00,WSW,247,4.0,-999.0,100,-99.99,,,-99.99,0.000000,,2013-02-02 09:42:00,
2013-02-02 04:52:00,17.0,17.0,-100.00,WSW,247,4.0,-999.0,100,-99.99,,,-99.99,0.000000,,2013-02-02 09:52:00,
2013-02-02 05:00:00,14.0,14.0,-100.00,South,180,4.0,-999.0,99,-99.99,,,-99.99,0.000000,,2013-02-02 10:00:00,
2013-02-02 05:42:00,14.0,14.0,-100.00,South,180,4.0,-999.0,99,-99.99,,,-99.99,0.000000,,2013-02-02 10:42:00,
2013-02-02 05:52:00,14.0,14.0,-100.00,South,180,4.0,-999.0,99,-99.99,,,-99.99,0.000000,,2013-02-02 10:52:00,
2013-02-02 06:00:00,15.0,15.0,-100.00,South,180,5.0,-999.0,99,-99.99,,,-99.99,0.000000,,2013-02-02 11:00:00,
2013-02-02 06:42:00,15.0,15.0,-100.00,South,180,5.0,-999.0,99,-99.99,,,-99.99,0.000000,,2013-02-02 11:42:00,
2013-02-02 06:52:00,15.0,15.0,-100.00,South,180,5.0,-999.0,99,-99.99,,,-99.99,0.000000,,2013-02-02 11:52:00,
2013-02-02 07:00:00,16.0,16.0,-100.00,South,180,6.0,-999.0,100,-99.99,,,-99.99,0.000000,,2013-02-02 12:00:00,
2013-02-02 07:32:00,16.0,16.0,-100.00,South,180,6.0,-999.0,100,-99.99,,,-99.99,0.000000,,2013-02-02 12:32:00,
2013-02-02 07:42:00,16.0,16.0,-100.00,South,180,6.0,-999.0,100,-99.99,,,-99.99,0.000000,,2013-02-02 12:42:00,
2013-02-02 07:53:00,16.0,16.0,-100.00,South,180,6.0,-999.0,100,-99.99,,,-99.99,0.000000,,2013-02-02 12:53:00,
2013-02-02 08:00:00,16.0,16.0,-100.00,SSW,202,4.0,-999.0,100,-99.99,,,-99.99,0.000000,,2013-02-02 13:00:00,
2013-02-02 08:33:00,16.0,16.0,-100.00,SSW,202,4.0,-999.0,100,-99.99,,,-99.99,0.000000,,2013-02-02 13:33:00,
2013-02-02 08:42:00,16.0,16.0,-100.00,SSW,202,4.0,-999.0,100,-99.99,,,-99.99,0.000000,,2013-02-02 13:42:00,
2013-02-02 08:52:00,16.0,16.0,-100.00,SSW,202,4.0,-999.0,100,-99.99,,,-99.99,0.000000,,2013-02-02 13:52:00,
2013-02-02 09:00:00,17.0,17.0,-100.00,East,90,2.0,-999.0,100,-99.99,,,-99.99,18.559999,,2013-02-02 14:00:00,
2013-02-02 09:42:00,17.0,17.0,-100.00,East,90,2.0,-999.0,100,-99.99,,,-99.99,18.559999,,2013-02-02 14:42:00,
2013-02-02 09:52:00,17.0,17.0,-100.00,East,90,2.0,-999.0,100,-99.99,,,-99.99,18.559999,,2013-02-02 14:52:00,
2013-02-02 10:00:00,16.0,16.0,-100.00,ENE,67,4.0,-999.0,99,-99.99,,,-99.99,80.040001,,2013-02-02 15:00:00,
2013-02-02 10:42:00,16.0,16.0,-100.00,ENE,67,4.0,-999.0,99,-99.99,,,-99.99,80.040001,,2013-02-02 15:42:00,
2013-02-02 10:52:00,16.0,16.0,-100.00,ENE,67,4.0,-999.0,99,-99.99,,,-99.99,80.040001,,2013-02-02 15:52:00,
2013-02-02 11:00:00,18.0,18.0,-100.00,East,90,3.0,-999.0,99,-99.99,,,-99.99,155.440002,,2013-02-02 16:00:00,
2013-02-02 11:42:00,18.0,18.0,-100.00,East,90,3.0,-999.0,99,-99.99,,,-99.99,155.440002,,2013-02-02 16:42:00,
2013-02-02 11:52:00,18.0,18.0,-100.00,East,90,3.0,-999.0,99,-99.99,,,-99.99,155.440002,,2013-02-02 16:52:00,
2013-02-02 12:00:00,17.0,17.0,-100.00,ENE,67,4.0,-999.0,98,-99.99,,,-99.99,151.960007,,2013-02-02 17:00:00,
2013-02-02 12:42:00,17.0,17.0,-100.00,ENE,67,4.0,-999.0,98,-99.99,,,-99.99,151.960007,,2013-02-02 17:42:00,
2013-02-02 12:53:00,17.0,17.0,-100.00,ENE,67,4.0,-999.0,98,-99.99,,,-99.99,151.960007,,2013-02-02 17:53:00,
2013-02-02 13:00:00,16.0,15.0,-100.00,East,90,4.0,-999.0,97,-99.99,,,-99.99,148.479996,,2013-02-02 18:00:00,
2013-02-02 13:42:00,16.0,15.0,-100.00,East,90,4.0,-999.0,97,-99.99,,,-99.99,148.479996,,2013-02-02 18:42:00,
2013-02-02 13:52:00,16.0,15.0,-100.00,East,90,4.0,-999.0,97,-99.99,,,-99.99,148.479996,,2013-02-02 18:52:00,
2013-02-02 14:00:00,16.0,15.0,-100.00,ESE,112,4.0,-999.0,96,-99.99,,,-99.99,151.960007,,2013-02-02 19:00:00,
2013-02-02 14:42:00,16.0,15.0,-100.00,ESE,112,4.0,-999.0,96,-99.99,,,-99.99,151.960007,,2013-02-02 19:42:00,
2013-02-02 14:52:00,16.0,15.0,-100.00,ESE,112,4.0,-999.0,96,-99.99,,,-99.99,151.960007,,2013-02-02 19:52:00,
2013-02-02 15:00:00,17.0,16.0,-100.00,SE,135,3.0,-999.0,95,-99.99,,,-99.99,148.479996,,2013-02-02 20:00:00,
2013-02-02 15:42:00,17.0,16.0,-100.00,SE,135,3.0,-999.0,95,-99.99,,,-99.99,148.479996,,2013-02-02 20:42:00,
2013-02-02 15:52:00,17.0,16.0,-100.00,SE,135,3.0,-999.0,95,-99.99,,,-99.99,148.479996,,2013-02-02 20:52:00,
2013-02-02 16:00:00,16.0,15.0,-100.00,ESE,112,3.0,-999.0,94,-99.99,,,-99.99,125.279999,,2013-02-02 21:00:00,
2013-02-02 16:32:00,16.0,15.0,-100.00,ESE,112,3.0,-999.0,94,-99.99,,,-99.99,125.279999,,2013-02-02 21:32:00,
2013-02-02 16:43:00,16.0,15.0,-100.00,ESE,112,3.0,-999.0,94,-99.99,,,-99.99,125.279999,,2013-02-02 21:43:00,
2013-02-02 16:52:00,16.0,15.0,-100.00,ESE,112,3.0,-999.0,94,-99.99,,,-99.99,125.279999,,2013-02-02 21:52:00,
2013-02-02 17:00:00,17.0,15.0,-100.00,ESE,112,3.0,-999.0,92,-99.99,,,-99.99,98.599998,,2013-02-02 22:00:00,
2013-02-02 17:32:00,17.0,15.0,-100.00,ESE,112,3.0,-999.0,92,-99.99,,,-99.99,98.599998,,2013-02-02 22:32:00,
2013-02-02 17:42:00,17.0,15.0,-100.00,ESE,112,3.0,-999.0,92,-99.99,,,-99.99,98.599998,,2013-02-02 22:42:00,
2013-02-02 17:52:00,17.0,15.0,-100.00,ESE,112,3.0,-999.0,92,-99.99,,,-99.99,98.599998,,2013-02-02 22:52:00,
2013-02-02 18:00:00,14.0,12.0,-100.00,SE,135,1.0,-999.0,93,-99.99,,,-99.99,23.200001,,2013-02-02 23:00:00,
2013-02-02 18:42:00,14.0,12.0,-100.00,SE,135,1.0,-999.0,93,-99.99,,,-99.99,23.200001,,2013-02-02 23:42:00,
2013-02-02 18:52:00,14.0,12.0,-100.00,SE,135,1.0,-999.0,93,-99.99,,,-99.99,23.200001,,2013-02-02 23:52:00,
2013-02-02 19:00:00,8.0,7.0,-100.00,ENE,67,0.0,-999.0,95,-99.99,,,-99.99,0.000000,,2013-02-03 00:00:00,
2013-02-02 19:42:00,8.0,7.0,-100.00,ENE,67,0.0,-999.0,95,-99.99,,,-99.99,0.000000,,2013-02-03 00:42:00,
2013-02-02 19:52:00,8.0,7.0,-100.00,ENE,67,0.0,-999.0,95,-99.99,,,-99.99,0.000000,,2013-02-03 00:52:00,
2013-02-02 20:00:00,1.0,0.0,-100.00,WNW,292,1.0,-999.0,94,-99.99,,,-99.99,0.000000,,2013-02-03 01:00:00,
2013-02-02 20:42:00,1.0,0.0,-100.00,WNW,292,1.0,-999.0,94,-99.99,,,-99.99,0.000000,,2013-02-03 01:42:00,
2013-02-02 20:52:00,1.0,0.0,-100.00,WNW,292,1.0,-999.0,94,-99.99,,,-99.99,0.000000,,2013-02-03 01:52:00,
2013-02-02 21:00:00,0.0,-2.0,-100.00,ESE,112,0.0,-999.0,94,-99.99,,,-99.99,0.000000,,2013-02-03 02:00:00,
2013-02-02 21:42:00,0.0,-2.0,-100.00,ESE,112,0.0,-999.0,94,-99.99,,,-99.99,0.000000,,2013-02-03 02:42:00,
2013-02-02 21:52:00,0.0,-2.0,-100.00,ESE,112,0.0,-999.0,94,-99.99,,,-99.99,0.000000,,2013-02-03 02:52:00,
2013-02-02 23:00:00,1.0,0.0,-100.00,WSW,247,0.0,-999.0,95,-99.99,,,-99.99,0.000000,,2013-02-03 04:00:00,
2013-02-02 23:22:00,1.0,0.0,-100.00,WSW,247,0.0,-999.0,95,-99.99,,,-99.99,0.000000,,2013-02-03 04:22:00,
2013-02-02 23:32:00,1.0,0.0,-100.00,WSW,247,0.0,-999.0,95,-99.99,,,-99.99,0.000000,,2013-02-03 04:32:00,
2013-02-02 23:42:00,1.0,0.0,-100.00,WSW,247,0.0,-999.0,95,-99.99,,,-99.99,0.000000,,2013-02-03 04:42:00,
2013-02-02 23:52:00,1.0,0.0,-100.00,WSW,247,0.0,-999.0,95,-99.99,,,-99.99,0.000000,,2013-02-03 04:52:00,